Regional Weather Roundup
Issued by NWS Little Rock, AR

Home | Current Version | Previous Version | Text Only | Print | Product List | Glossary On
Versions: 1 2 3 4 5 6 7 8 9 10 11 12 13 14 15 16 17 18 19 20 21 22 23 24 25 26 27 28 29 30 31 32 33 34 35 36 37 38 39 40 41 42 43 44 45 46 47 48 49 50
000
ASUS44 KLZK 200505
RWRLZK

WEATHER ROUNDUP FOR ARKANSAS
NATIONAL WEATHER SERVICE LITTLE ROCK AR
1100 PM CST SUN FEB 19 2017

NOTE: "FAIR" INDICATES FEW OR NO CLOUDS BELOW 12,000 FEET WITH NO
SIGNIFICANT WEATHER AND/OR OBSTRUCTIONS TO VISIBILITY.

ARZ001-003-010-029-200600-
NORTHWEST ARKANSAS

CITY           SKY/WX    TMP DP  RH WIND       PRES   REMARKS
FAYETTEVILLE   MOCLDY    67  53  61 SE9       29.95F
HARRISON       CLOUDY    58  56  93 SE12      30.01F
BENTONVILLE    PTCLDY    64  54  68 SE12      29.96F
ROGERS         CLOUDY    64  56  75 SE12      29.96F
SILOAM SPGS    PTCLDY    64  54  68 SE15      29.93F
HIGHFILL       PTCLDY    65  56  72 SE15      29.94F
$$

ARZ004-005-016-200600-
NORTH CENTRAL ARKANSAS

CITY           SKY/WX    TMP DP  RH WIND       PRES   REMARKS
BATESVILLE     CLEAR     57  54  88 CALM      30.05S
FLIPPIN        PTCLDY    55  50  82 CALM      30.01S
MTN HOME       CLEAR     57  54  89 SE6       30.02F
$$

ARZ040-041-200600-
WEST CENTRAL ARKANSAS

CITY           SKY/WX    TMP DP  RH WIND       PRES   REMARKS
MENA           CLOUDY    59  59 100 CALM      29.97S
MOUNT IDA      MOCLDY    62  53  72 VRB3      29.96F
$$

ARZ009-017-025-026-028-200600-
NORTHEAST ARKANSAS

CITY           SKY/WX    TMP DP  RH WIND       PRES   REMARKS
CORNING        FAIR      55  55 100 E5        30.07S
JONESBORO      CLEAR     55  52  89 NE5       30.06R
NEWPORT        CLOUDY    57  54  89 E7        30.05
WALNUT RIDGE     N/A     54  48  82 E8        30.06S VSB 3/4
BLYTHEVILLE    CLEAR     58  51  78 SE7       30.07F
$$

ARZ022-023-033-042-044-200600-
CENTRAL ARKANSAS

CITY           SKY/WX    TMP DP  RH WIND       PRES   REMARKS
LITTLE ROCK    CLEAR     58  56  93 CALM      30.02S
JACKSONVILLE   CLEAR     56  55  98 CALM      30.01S
SEARCY         CLEAR     58  57  97 NE3       30.05S
HOT SPRINGS    CLEAR     62  55  77 E6        30.00S
RUSSELLVILLE   CLOUDY    67  56  67 E7        29.99S
CLINTON        CLOUDY    50  48  93 CALM      30.04S FOG
$$

ARZ036-200600-
EAST ARKANSAS

CITY           SKY/WX    TMP DP  RH WIND       PRES   REMARKS
WEST MEMPHIS   CLEAR     57  52  83 SE6       30.05F
$$

ARZ050-053-066-070-073-200600-
SOUTHWEST ARKANSAS

CITY           SKY/WX    TMP DP  RH WIND       PRES   REMARKS
ARKADELPHIA    FAIR      54  53  97 CALM      30.00S
CAMDEN         PTCLDY    54  50  87 CALM      30.00R
TEXARKANA      PTCLDY    65  56  72 SE9       29.96S
EL DORADO      PTCLDY    59  53  80 SE3       30.00R
DE QUEEN       CLEAR     63  58  83 E7        29.92F
$$

ARZ056-057-069-200600-
SOUTHEAST ARKANSAS

CITY           SKY/WX    TMP DP  RH WIND       PRES   REMARKS
PINE BLUFF     CLEAR     59  55  87 SE5       30.02S
STUTTGART      CLEAR     63  52  67 E8        30.04R
MONTICELLO     CLEAR     60  55  83 E3        30.01F

$$





USA.gov is the U.S. government's official web portal to all federal, state and local government web resources and services.